FW3572 Weather Reports


Display with metric or nautical units.
time (UTC)temp
F
wind
direction
speed
MPH
gust
MPH
rain 1hr
in
rain 24hr
in
rain mn
in
humidity
%
barometer
mb
20200220080632 72 69 0.0 0.0 0.00 0.00 0.00 89 1020.4
20200220080312 72 69 0.0 0.0 0.00 0.00 0.00 89 1020.5
20200220075553 72 69 0.0 0.0 0.00 0.00 0.00 89 1020.5
20200220075102 72 69 0.0 0.0 0.00 0.00 0.00 89 1020.6
20200220074100 72 69 0.0 0.0 0.00 0.00 0.00 89 1020.7
20200220073554 72 69 0.0 0.0 0.00 0.00 0.00 89 1020.6
20200220073111 72 69 0.0 0.0 0.00 0.00 0.00 89 1020.7
20200220072608 72 69 0.0 0.0 0.00 0.00 0.00 89 1020.7
20200220072055 72 69 0.0 0.0 0.00 0.00 0.00 89 1020.8
20200220071654 72 69 0.0 0.0 0.00 0.00 0.00 89 1020.8
20200220071051 72 69 0.0 0.0 0.00 0.00 0.00 89 1020.9
20200220070641 72 69 0.0 0.0 0.00 0.00 0.00 89 1021.0
20200220070139 72 69 0.0 0.0 0.00 0.00 0.00 89 1021.2
20200220065549 72 69 0.0 0.0 0.00 0.00 0.00 89 1021.2
20200220065047 72 69 0.0 0.0 0.00 0.00 0.00 89 1021.3
20200220064119 72 69 0.0 0.0 0.00 0.00 0.00 89 1021.5
20200220063551 72 69 0.0 0.0 0.00 0.00 0.00 89 1021.6
20200220063113 72 69 0.0 0.0 0.00 0.00 0.00 88 1021.6
20200220062549 72 69 0.0 0.0 0.00 0.00 0.00 88 1021.7
20200220062045 72 69 0.0 0.0 0.00 0.00 0.00 88 1021.7
20200220061713 72 69 0.0 0.0 0.00 0.00 0.00 88 1021.8
20200220061044 72 69 0.0 0.0 0.00 0.00 0.00 88 1021.8
20200220060547 72 69 0.0 0.0 0.00 0.00 0.00 88 1021.8
20200220060122 72 69 0.0 0.0 0.00 0.00 0.00 88 1022.0
20200220055542 72 69 0.0 0.0 0.00 0.00 0.00 88 1021.9
20200220055045 72 69 0.0 0.0 0.00 0.00 0.00 88 1022.0
20200220054043 72 69 0.0 0.0 0.00 0.00 0.00 88 1022.1
20200220053612 72 69 0.0 0.0 0.00 0.00 0.00 88 1022.1
20200220053101 72 69 0.0 2.0 0.00 0.00 0.00 88 1022.2
20200220052541 72 69 0.0 2.0 0.00 0.00 0.00 88 1022.2
20200220052040 72 69 0.0 0.0 0.00 0.00 0.00 88 1022.4
20200220051601 72 69 0.0 0.0 0.00 0.00 0.00 88 1022.4
20200220051053 72 69 0.0 0.0 0.00 0.00 0.00 88 1022.3
20200220050539 72 69 0.0 0.0 0.00 0.00 0.00 88 1022.4
20200220050109 72 69 0.0 0.0 0.00 0.00 0.00 88 1022.5
20200220045600 72 69 0.0 0.0 0.00 0.00 0.00 88 1022.6
20200220045038 72 69 0.0 0.0 0.00 0.00 0.00 88 1022.6
20200220044039 72 86 0.0 4.0 0.00 0.00 0.00 88 1022.7
20200220043539 72 32 1.0 4.0 0.00 0.00 0.00 88 1022.8
20200220043107 72 51 0.0 0.0 0.00 0.00 0.00 88 1022.8
20200220042543 72 51 0.0 0.0 0.00 0.00 0.00 88 1022.8
20200220042043 73 51 0.0 2.0 0.00 0.00 0.00 88 1022.8
20200220041707 73 28 0.0 2.0 0.00 0.00 0.00 87 1022.8
20200220041107 73 13 0.0 3.0 0.00 0.00 0.00 88 1022.8
20200220040601 73 11 0.0 3.0 0.00 0.00 0.00 88 1022.8
20200220040133 73 342 0.0 0.0 0.00 0.00 0.00 88 1022.8
20200220035542 73 51 0.0 0.0 0.00 0.00 0.00 88 1022.9
20200220035043 73 54 0.0 0.0 0.00 0.00 0.00 88 1023.0
20200220034037 73 44 0.0 3.0 0.00 0.00 0.00 88 1023.0
20200220033537 73 12 1.0 3.0 0.00 0.00 0.00 88 1023.0
20200220033150 73 355 0.0 0.0 0.00 0.00 0.00 88 1023.0
20200220032537 73 22 0.0 3.0 0.00 0.00 0.00 88 1023.0
20200220032037 73 25 0.0 4.0 0.00 0.00 0.00 88 1023.0
20200220031558 73 36 1.0 4.0 0.00 0.00 0.00 87 1023.0
20200220031037 73 26 0.0 5.0 0.00 0.00 0.00 87 1023.0
20200220030539 73 19 1.0 4.0 0.00 0.00 0.00 87 1023.0
20200220030109 73 13 1.0 4.0 0.00 0.00 0.00 87 1023.0
20200220025536 73 30 1.0 5.0 0.00 0.00 0.00 87 1023.0
20200220025053 73 36 1.0 5.0 0.00 0.00 0.00 87 1023.0
20200220024042 73 44 1.0 4.0 0.00 0.00 0.00 87 1023.0
20200220023535 73 63 1.0 5.0 0.00 0.00 0.00 87 1023.0
20200220023209 73 23 1.0 4.0 0.00 0.00 0.00 87 1023.0
20200220022538 73 14 1.0 4.0 0.00 0.00 0.00 87 1023.0
20200220022035 74 17 1.0 5.0 0.00 0.00 0.00 87 1023.0
20200220021629 74 51 0.0 5.0 0.00 0.00 0.00 87 1023.0
20200220021034 74 5 2.0 6.0 0.00 0.00 0.00 86 1023.0
20200220020534 74 11 2.0 6.0 0.00 0.00 0.00 86 1022.9
20200220020041 74 25 2.0 6.0 0.00 0.00 0.00 86 1022.8
20200220015544 75 38 1.0 4.0 0.00 0.00 0.00 86 1022.8
20200220015034 75 54 0.0 3.0 0.00 0.00 0.00 86 1022.7
20200220014056 75 9 2.0 5.0 0.00 0.00 0.00 85 1022.8
20200220013534 75 36 2.0 5.0 0.00 0.00 0.00 85 1022.7
20200220013056 76 355 0.0 4.0 0.00 0.00 0.00 85 1022.7
20200220012541 76 67 1.0 4.0 0.00 0.00 0.00 84 1022.6
20200220012034 76 108 1.0 4.0 0.00 0.00 0.00 83 1022.6
20200220011552 76 69 2.0 4.0 0.00 0.00 0.00 83 1022.6
20200220011055 76 86 1.0 4.0 0.00 0.00 0.00 83 1022.6
20200220010606 76 65 0.0 3.0 0.00 0.00 0.00 83 1022.6
20200220010045 76 65 0.0 2.0 0.00 0.00 0.00 83 1022.7
20200220005536 76 30 0.0 2.0 0.00 0.00 0.00 83 1022.6
20200220005033 76 30 0.0 3.0 0.00 0.00 0.00 83 1022.5
20200220004037 76 30 0.0 3.0 0.00 0.00 0.00 82 1022.5
20200220003536 77 30 0.0 3.0 0.00 0.00 0.00 82 1022.5
20200220003125 77 28 1.0 4.0 0.00 0.00 0.00 82 1022.4
20200220002533 77 5 0.0 4.0 0.00 0.00 0.00 82 1022.4
20200220002035 77 22 0.0 3.0 0.00 0.00 0.00 82 1022.4
20200220001613 77 22 1.0 3.0 0.00 0.00 0.00 82 1022.4
20200220001033 77 82 0.0 6.0 0.00 0.00 0.00 82 1022.3
20200220000533 76 90 2.0 6.0 0.00 0.00 0.00 82 1022.2
20200220000044 76 121 1.0 6.0 0.00 0.00 0.00 82 1022.1
20200219235533 77 121 2.0 6.0 0.00 0.00 0.00 82 1022.1
20200219235032 77 149 1.0 5.0 0.00 0.00 0.00 82 1022.1
20200219234608 77 112 3.0 7.0 0.00 0.00 0.00 82 1022.0
20200219234039 77 123 2.0 7.0 0.00 0.00 0.00 82 1021.9
20200219233536 77 116 3.0 7.0 0.00 0.00 0.00 82 1022.0
20200219233101 77 143 2.0 8.0 0.00 0.00 0.00 82 1021.9
20200219232533 77 113 2.0 9.0 0.00 0.00 0.00 82 1022.0
20200219232032 77 129 3.0 9.0 0.00 0.00 0.00 82 1021.9
20200219231610 77 105 4.0 9.0 0.00 0.00 0.00 81 1021.9
20200219231031 77 102 4.0 9.0 0.00 0.00 0.00 81 1021.9
20200219230531 77 115 3.0 9.0 0.00 0.00 0.00 81 1021.8
20200219230042 77 150 3.0 9.0 0.00 0.00 0.00 81 1021.8
20200219225531 77 130 3.0 8.0 0.00 0.00 0.00 81 1021.7
20200219225033 77 119 3.0 8.0 0.00 0.00 0.00 80 1021.6
20200219224037 77 94 3.0 10.0 0.00 0.00 0.00 80 1021.6
20200219223541 77 117 5.0 10.0 0.00 0.00 0.00 80 1021.7
20200219223128 77 138 3.0 11.0 0.00 0.00 0.00 80 1021.6
20200219222533 77 118 5.0 9.0 0.00 0.00 0.00 80 1021.5
20200219222039 77 134 4.0 10.0 0.00 0.00 0.00 80 1021.3
20200219221645 77 116 6.0 10.0 0.00 0.00 0.00 80 1021.2
20200219221032 77 143 4.0 9.0 0.00 0.00 0.00 80 1021.3
20200219220535 77 146 5.0 9.0 0.00 0.00 0.00 80 1021.2
20200219220151 78 51 4.0 15.0 0.00 0.00 0.00 80 1021.1
20200219215532 78 115 5.0 11.0 0.00 0.00 0.00 79 1021.1
20200219215031 78 102 4.0 10.0 0.00 0.00 0.00 79 1021.2
20200219214030 78 135 4.0 10.0 0.00 0.00 0.00 78 1021.2
20200219213530 78 137 4.0 10.0 0.00 0.00 0.00 78 1021.2
20200219213109 78 123 5.0 10.0 0.00 0.00 0.00 78 1021.2
20200219212530 78 123 5.0 10.0 0.00 0.00 0.00 78 1021.2
20200219212110 78 121 6.0 10.0 0.00 0.00 0.00 78 1021.2
20200219211607 78 146 4.0 10.0 0.00 0.00 0.00 78 1021.1
20200219211027 78 139 5.0 11.0 0.00 0.00 0.00 78 1021.1
20200219210527 78 129 6.0 11.0 0.00 0.00 0.00 78 1021.2
20200219210046 78 119 6.0 11.0 0.00 0.00 0.00 78 1021.2
20200219205527 78 148 5.0 11.0 0.00 0.00 0.00 78 1021.2
20200219205027 79 116 4.0 12.0 0.00 0.00 0.00 77 1021.2
20200219204609 79 120 5.0 10.0 0.00 0.00 0.00 77 1021.2
20200219204034 79 90 5.0 10.0 0.00 0.00 0.00 77 1021.2
20200219203527 79 171 5.0 10.0 0.00 0.00 0.00 77 1021.2
20200219203114 79 126 5.0 13.0 0.00 0.00 0.00 77 1021.2
20200219202038 79 191 7.0 14.0 0.00 0.00 0.00 77 1021.3
20200219201544 79 93 8.0 16.0 0.00 0.00 0.00 77 1021.3
20200219201027 80 144 5.0 16.0 0.00 0.00 0.00 77 1021.3
20200219200525 79 136 6.0 14.0 0.00 0.00 0.00 77 1021.3
20200219200109 79 142 9.0 14.0 0.00 0.00 0.00 77 1021.2
20200219195525 80 125 4.0 10.0 0.00 0.00 0.00 76 1021.4
20200219194025 79 120 8.0 16.0 0.00 0.00 0.00 77 1021.3
20200219193529 79 143 6.0 14.0 0.00 0.00 0.00 77 1021.4
20200219193103 79 169 6.0 13.0 0.00 0.00 0.00 76 1021.4
20200219192530 79 104 8.0 13.0 0.00 0.00 0.00 76 1021.4
20200219192025 79 155 5.0 14.0 0.00 0.00 0.00 77 1021.4
20200219191529 80 146 6.0 16.0 0.00 0.00 0.00 75 1021.4
20200219191023 79 155 7.0 16.0 0.00 0.00 0.00 76 1021.4
20200219190535 79 109 9.0 15.0 0.00 0.00 0.00 75 1021.5
20200219190041 79 122 5.0 11.0 0.00 0.00 0.00 75 1021.5
20200219185522 81 138 6.0 11.0 0.00 0.00 0.00 73 1021.6
20200219185023 80 136 5.0 12.0 0.00 0.00 0.00 76 1021.7
20200219184035 79 135 4.0 12.0 0.00 0.00 0.00 76 1021.8
20200219183521 79 165 6.0 12.0 0.00 0.00 0.00 76 1021.9
20200219183100 80 170 4.0 11.0 0.00 0.00 0.00 77 1022.0
20200219182521 79 146 4.0 11.0 0.00 0.00 0.00 77 1022.2
20200219182021 79 97 4.0 12.0 0.00 0.00 0.00 78 1022.4
20200219181522 79 135 6.0 12.0 0.00 0.00 0.00 78 1022.5
20200219181031 79 146 5.0 12.0 0.00 0.00 0.00 77 1022.5
20200219180523 80 134 6.0 14.0 0.00 0.00 0.00 76 1022.6
20200219180052 81 111 7.0 11.0 0.00 0.00 0.00 76 1022.7
20200219175527 80 163 4.0 10.0 0.00 0.00 0.00 79 1022.6
20200219175021 78 130 5.0 10.0 0.00 0.00 0.00 79 1022.7
20200219174023 79 117 4.0 10.0 0.00 0.00 0.00 79 1022.9
20200219173518 79 129 4.0 9.0 0.00 0.00 0.00 78 1022.9
20200219173117 79 126 5.0 9.0 0.00 0.00 0.00 77 1023.0
20200219172526 79 147 5.0 9.0 0.00 0.00 0.00 77 1023.0
20200219172019 79 136 4.0 9.0 0.00 0.00 0.00 77 1023.1
20200219171618 79 136 4.0 8.0 0.00 0.00 0.00 76 1023.2
20200219171018 79 116 4.0 8.0 0.00 0.00 0.00 76 1023.2
20200219170520 79 138 4.0 10.0 0.00 0.00 0.00 76 1023.3
20200219170026 79 166 5.0 10.0 0.00 0.00 0.00 77 1023.3
20200219165518 79 108 5.0 10.0 0.00 0.00 0.00 77 1023.4
20200219165017 79 126 3.0 11.0 0.00 0.00 0.00 77 1023.5
20200219164019 80 107 4.0 8.0 0.00 0.00 0.00 76 1023.6
20200219163518 80 144 0.0 6.0 0.00 0.00 0.00 75 1023.6
20200219163103 79 154 2.0 6.0 0.00 0.00 0.00 75 1023.6
20200219162548 80 167 0.0 5.0 0.00 0.00 0.00 74 1023.7
20200219162028 80 152 0.0 0.0 0.00 0.00 0.00 75 1023.7
20200219161525 80 209 0.0 2.0 0.00 0.00 0.00 73 1023.8
20200219161017 81 209 0.0 6.0 0.00 0.00 0.00 71 1023.7
20200219160523 81 210 2.0 6.0 0.00 0.00 0.00 72 1023.8
20200219160113 80 152 0.0 4.0 0.00 0.00 0.00 73 1023.9
20200219155517 80 179 2.0 6.0 0.00 0.00 0.00 72 1023.9
20200219155016 81 147 3.0 6.0 0.00 0.00 0.00 70 1023.9
20200219154024 80 190 0.0 6.0 0.00 0.00 0.00 74 1023.9
20200219153523 80 146 2.0 6.0 0.00 0.00 0.00 74 1023.9
20200219153045 80 136 1.0 8.0 0.00 0.00 0.00 72 1023.9
20200219152523 80 198 2.0 10.0 0.00 0.00 0.00 73 1023.9
20200219152026 80 180 0.0 7.0 0.00 0.00 0.00 72 1024.0
20200219151523 80 209 2.0 7.0 0.00 0.00 0.00 73 1024.0
20200219151015 80 239 3.0 8.0 0.00 0.00 0.00 74 1024.0
20200219150515 80 200 3.0 8.0 0.00 0.00 0.00 74 1024.1
20200219150118 80 234 3.0 9.0 0.00 0.00 0.00 74 1024.1
20200219145515 80 224 0.0 9.0 0.00 0.00 0.00 76 1024.1
20200219145019 80 186 2.0 8.0 0.00 0.00 0.00 76 1024.0
20200219144013 79 196 2.0 7.0 0.00 0.00 0.00 77 1024.1
20200219143515 79 167 2.0 8.0 0.00 0.00 0.00 78 1024.1
20200219143024 79 221 1.0 9.0 0.00 0.00 0.00 79 1024.0
20200219142515 78 194 2.0 10.0 0.00 0.00 0.00 79 1024.0
20200219142010 78 249 2.0 6.0 0.00 0.00 0.00 80 1024.0
20200219141536 78 221 3.0 9.0 0.00 0.00 0.00 80 1023.9
20200219141007 77 214 1.0 9.0 0.00 0.00 0.00 82 1023.9
20200219140510 77 162 2.0 5.0 0.00 0.00 0.00 82 1023.7
20200219140022 76 200 1.0 4.0 0.00 0.00 0.00 84 1023.7
20200219135503 76 207 1.0 4.0 0.00 0.00 0.00 84 1023.7
20200219135004 75 218 2.0 4.0 0.00 0.00 0.00 85 1023.7
20200219134644 75 233 1.0 4.0 0.00 0.00 0.00 85 1023.7
20200219134002 75 215 1.0 6.0 0.00 0.00 0.00 85 1023.5
20200219133558 75 218 1.0 6.0 0.00 0.00 0.00 85 1023.6
20200219133158 74 209 0.0 5.0 0.00 0.00 0.00 86 1023.5
20200219132559 74 235 2.0 5.0 0.00 0.00 0.00 86 1023.5
20200219132054 74 263 0.0 4.0 0.00 0.00 0.00 87 1023.4
20200219131643 74 245 0.0 1.0 0.00 0.00 0.00 87 1023.4
20200219131053 73 242 0.0 0.0 0.00 0.00 0.00 87 1023.4
20200219130556 73 229 0.0 0.0 0.00 0.00 0.00 88 1023.3
20200219130150 73 229 0.0 0.0 0.00 0.00 0.00 88 1023.3
20200219125557 73 229 0.0 0.0 0.00 0.00 0.00 88 1023.3
20200219125105 73 207 0.0 0.0 0.00 0.00 0.00 89 1023.2
20200219124629 72 175 0.0 0.0 0.00 0.00 0.00 89 1023.2
20200219123113 71 175 0.0 0.0 0.00 0.00 0.00 90 1023.0
20200219122548 71 165 0.0 0.0 0.00 0.00 0.00 90 1023.1
20200219122057 71 165 0.0 0.0 0.00 0.00 0.00 90 1023.0
20200219121652 71 165 0.0 0.0 0.00 0.00 0.00 90 1022.9
20200219121047 71 165 0.0 0.0 0.00 0.00 0.00 90 1022.9
20200219120552 70 165 0.0 0.0 0.00 0.00 0.00 90 1022.8
20200219120108 70 165 0.0 0.0 0.00 0.00 0.00 90 1022.8
20200219115551 70 165 0.0 0.0 0.00 0.00 0.00 90 1022.6
20200219115053 70 165 0.0 0.0 0.00 0.00 0.00 90 1022.6
20200219114646 70 165 0.0 0.0 0.00 0.00 0.00 90 1022.6
20200219113545 70 165 0.0 0.0 0.00 0.00 0.00 90 1022.5
20200219113118 70 165 0.0 0.0 0.00 0.00 0.00 90 1022.4
20200219112550 70 165 0.0 0.0 0.00 0.00 0.00 90 1022.5
20200219112048 69 165 0.0 0.0 0.00 0.00 0.00 90 1022.4
20200219111709 69 165 0.0 0.0 0.00 0.00 0.00 90 1022.4
20200219111044 69 165 0.0 0.0 0.00 0.00 0.00 90 1022.3
20200219110553 69 165 0.0 0.0 0.00 0.00 0.00 90 1022.3
20200219110127 69 165 0.0 0.0 0.00 0.00 0.00 90 1022.3
20200219105548 69 165 0.0 0.0 0.00 0.00 0.00 90 1022.2
20200219105046 69 165 0.0 0.0 0.00 0.00 0.00 90 1022.1
20200219104641 70 165 0.0 0.0 0.00 0.00 0.00 89 1022.1
20200219103540 70 165 0.0 0.0 0.00 0.00 0.00 89 1022.1
20200219103109 70 165 0.0 0.0 0.00 0.00 0.00 89 1022.0
20200219102542 70 165 0.0 0.0 0.00 0.00 0.00 89 1021.9
20200219102058 70 165 0.0 0.0 0.00 0.00 0.00 89 1021.9
20200219101556 70 165 0.0 0.0 0.00 0.00 0.00 89 1021.8
20200219101041 70 165 0.0 0.0 0.00 0.00 0.00 89 1021.9
20200219100602 70 165 0.0 0.0 0.00 0.00 0.00 89 1021.9
20200219100052 70 165 0.0 0.0 0.00 0.00 0.00 89 1021.8
20200219095549 70 165 0.0 0.0 0.00 0.00 0.00 89 1021.7
20200219095038 70 165 0.0 0.0 0.00 0.00 0.00 89 1021.7
20200219094557 70 165 0.0 0.0 0.00 0.00 0.00 89 1021.8
20200219093536 70 165 0.0 0.0 0.00 0.00 0.00 88 1021.8
20200219093051 70 165 0.0 0.0 0.00 0.00 0.00 88 1021.8
20200219092535 71 165 0.0 0.0 0.00 0.00 0.00 88 1021.9
20200219092051 71 165 0.0 0.0 0.00 0.00 0.00 88 1021.8
20200219091558 71 165 0.0 0.0 0.00 0.00 0.00 88 1021.7
20200219091035 71 165 0.0 0.0 0.00 0.00 0.00 88 1021.8
20200219090536 71 165 0.0 0.0 0.00 0.00 0.00 88 1021.6
20200219090125 71 165 0.0 0.0 0.00 0.00 0.00 88 1021.6
20200219085535 71 165 0.0 0.0 0.00 0.00 0.00 88 1021.5
20200219085033 71 165 0.0 0.0 0.00 0.00 0.00 88 1021.5
20200219084540 71 165 0.0 0.0 0.00 0.00 0.00 88 1021.5
20200219083534 71 165 0.0 0.0 0.00 0.00 0.00 88 1021.5
20200219083057 71 165 0.0 0.0 0.00 0.00 0.00 88 1021.6
20200219082536 71 165 0.0 0.0 0.00 0.00 0.00 88 1021.5
20200219082034 71 165 0.0 0.0 0.00 0.00 0.00 88 1021.4
20200219081546 72 165 0.0 0.0 0.00 0.00 0.00 88 1021.4
20200219081037 71 165 0.0 0.0 0.00 0.00 0.00 88 1021.5